Retour au catalogue

FENGYUN 1C DEB *

ActifPO
NORAD 47012·DEBRIS·🇨🇳 China

Lancé May 10, 1999 depuis Taiyuan Satellite Launch Center

Loading…

Prochains Passages (prochaines 24 heures)

TLE

VieillissantSource: Space-Track

Époque: Sep 4, 2026, 20:35 UTC

1 47012U 99025FAN 26247.85799003  .00000217  00000-0  22923-3 0  9992
2 47012  98.7228 110.4437 0163779  69.1471 292.7134 13.78142883582382

Suivez FENGYUN 1C DEB * en temps réel avec AllMySat

Download on the App Store